Wind_Speed
3 4 5 9 11 10 10 12 13 14 16 17 17 17 16 17 18 21 21 22 23 23 23 23 25 25 26 26 26 27 27 27 28 28 29 29 29 29 29 29 29 30 30 30
4 6 9 11 10 9 12 13 14 16 16 17 17 17 17 19 20 21 22 22 23 22 23 24 25 25 26 26 26 27 27 28 29 29 29 30 29 29 29 29 29 30 30 30
6 8 10 9 10 11 12 12 13 16 16 15 16 19 18 18 20 22 21 22 23 25 24 25 26 25 25 25 25 26 27 28 27 28 28 29 29 29 30 29 29 29 29 30
9 9 9 10 11 13 12 13 15 17 17 16 16 18 18 18 19 21 21 23 23 24 24 25 26 25 25 24 24 26 27 27 26 27 27 28 28 29 29 29 28 28 29 30
10 11 10 11 12 13 14 15 15 15 16 16 16 18 19 20 20 22 22 24 24 26 26 25 25 25 24 23 24 25 25 26 26 27 27 27 28 28 28 28 28 29 30 30
11 11 11 12 13 14 15 15 14 14 15 15 17 18 20 21 20 23 24 25 26 26 26 24 24 25 24 24 24 24 24 25 25 25 26 26 28 27 26 27 28 28 29 29
12 11 12 13 13 15 16 15 15 15 14 14 16 19 19 20 20 22 24 26 26 25 25 24 25 24 25 25 24 24 24 24 24 24 25 26 26 25 25 27 27 28 28 29
11 11 12 14 15 15 13 14 15 17 16 15 16 18 16 17 19 21 24 25 26 25 24 25 26 25 25 25 24 23 23 24 24 24 24 24 25 26 26 27 27 27 28 28
11 10 11 13 12 14 15 14 15 18 17 17 16 18 16 16 19 22 24 25 26 26 25 25 25 25 25 25 24 24 24 24 24 24 24 24 25 26 27 27 27 28 28 28
14 13 12 12 11 12 14 13 15 15 18 19 17 17 18 20 22 24 24 25 26 26 26 25 25 25 25 24 23 23 23 23 22 23 24 24 24 25 26 26 27 27 27 27
17 16 13 13 12 13 14 14 16 17 17 19 20 19 19 20 22 23 23 24 25 26 25 25 24 24 24 23 22 22 22 22 23 23 23 24 25 25 25 25 26 26 26 26
16 15 14 13 13 14 14 16 17 18 19 19 20 20 19 21 23 23 24 25 26 26 25 24 23 23 23 22 22 21 21 22 22 23 23 24 24 24 24 24 24 24 25 25
16 14 15 13 14 15 16 18 19 20 20 20 20 20 20 22 23 24 24 25 26 25 24 23 23 22 22 21 21 20 20 21 21 22 22 23 23 23 23 23 23 24 24 24
17 16 15 15 17 17 17 18 19 20 20 20 21 22 22 23 24 24 24 25 25 24 24 24 23 21 21 21 20 20 19 20 21 21 22 21 22 22 21 21 22 22 23 23
17 17 17 17 18 18 19 19 20 20 20 21 22 22 23 22 24 24 25 25 26 24 24 23 22 20 20 19 19 19 20 20 20 20 20 20 20 20 20 20 20 21 22 22
18 18 18 18 18 19 19 19 20 20 20 21 22 23 22 23 23 24 25 25 24 23 22 21 20 19 18 19 19 19 19 19 19 19 19 19 19 19 19 19 20 21 21 22
18 18 19 19 19 20 19 19 20 20 20 21 23 22 23 23 24 24 24 24 23 21 20 19 19 18 18 18 17 17 16 16 17 17 18 18 18 17 18 18 19 20 21 22
19 19 20 19 18 19 20 21 21 20 21 22 23 24 24 24 24 23 23 23 22 20 19 18 17 16 16 16 15 15 15 15 15 16 15 16 17 17 17 18 19 19 21 22
20 20 20 19 18 19 19 21 20 20 21 23 23 23 23 23 23 22 21 20 19 17 16 15 14 14 14 13 13 13 13 13 14 14 15 15 16 16 17 18 19 20 21 21
21 21 21 21 20 20 21 22 19 20 22 23 23 22 21 21 20 19 18 17 15 14 14 14 13 13 12 10 11 12 12 12 13 14 15 16 16 16 18 18 19 19 19 20
21 20 20 21 20 20 21 21 20 21 23 23 22 21 20 19 18 16 16 14 14 14 13 12 11 10 10 9 10 11 12 12 12 14 15 15 15 16 18 18 18 18 19 19
22 21 21 20 20 20 21 21 21 22 21 21 20 18 18 17 15 14 14 13 13 14 13 12 10 8 9 9 10 10 11 11 13 14 15 15 16 17 17 18 18 18 18 20
22 22 21 20 20 21 21 22 21 21 20 20 19 17 17 17 14 13 13 13 13 13 12 11 9 8 8 9 9 9 10 12 12 13 14 16 16 17 17 18 18 18 19 19
23 22 22 22 22 22 22 22 22 21 20 19 18 17 16 16 13 12 12 13 12 11 10 9 8 8 8 9 9 9 10 12 13 13 14 15 16 16 17 18 18 18 18 19
23 23 23 23 23 22 21 21 21 20 19 19 17 16 15 14 13 12 12 12 11 10 9 8 8 7 8 8 9 9 11 12 13 13 14 15 16 16 17 17 18 18 19 19
24 23 23 23 23 23 22 21 20 19 18 17 16 15 14 14 13 12 11 10 9 9 8 8 8 8 8 8 9 10 11 12 13 13 14 15 16 17 17 17 18 19 19 19
Wind_Direction
335 326 296 272 268 261 254 259 263 268 271 272 277 282 279 282 287 288 290 292 292 292 291 289 290 289 289 288 286 288 289 289 290 292 294 295 297 297 296 296 295 295 296 297
322 295 280 280 281 273 272 267 268 271 274 278 280 284 288 287 290 292 293 293 293 290 291 294 297 294 291 290 288 287 288 289 290 292 294 295 297 297 297 296 297 296 297 298
291 275 272 278 284 278 274 275 272 274 274 276 281 282 281 281 284 290 292 294 295 296 295 295 296 297 295 292 291 291 291 292 291 293 295 297 297 297 299 299 298 297 297 298
311 300 290 286 279 280 282 278 275 277 278 279 279 277 276 277 284 285 290 294 294 294 295 296 296 297 296 294 295 294 294 293 291 292 296 299 299 299 299 299 299 299 300 299
316 308 301 290 282 282 279 279 284 285 284 283 283 283 280 283 284 288 292 293 293 296 299 300 300 299 299 298 298 296 297 294 293 294 296 298 298 299 299 299 300 300 302 303
316 311 298 288 289 290 291 290 287 287 289 287 285 284 281 282 284 286 291 297 295 297 299 301 300 299 300 297 299 300 297 296 296 296 298 298 300 300 300 301 302 302 303 304
317 311 305 299 298 292 292 296 295 295 296 289 289 283 280 284 287 290 296 300 302 301 302 302 302 300 300 300 297 300 302 299 299 300 301 302 302 302 303 303 303 304 305 305
311 310 303 302 302 302 301 301 301 298 295 295 296 289 285 292 293 293 296 297 299 302 302 302 302 302 301 302 301 301 302 302 302 302 303 304 304 304 304 304 305 307 306 305
304 305 303 299 304 305 303 298 298 298 304 301 300 300 298 290 293 293 293 293 298 300 299 300 300 301 301 301 302 302 301 301 300 302 303 305 306 306 306 305 307 308 309 309
305 305 305 306 307 306 303 306 302 301 303 302 300 295 290 287 289 290 289 292 296 298 300 300 301 301 299 299 300 300 300 301 304 304 303 304 307 307 307 307 308 309 310 311
307 307 310 309 312 307 301 301 300 300 299 297 298 299 297 292 292 294 293 294 296 297 297 298 300 300 300 299 300 301 301 301 301 302 305 304 306 307 307 308 309 310 312 313
308 308 314 315 311 308 308 303 305 305 305 301 299 300 302 298 297 296 295 296 296 296 298 300 301 300 300 301 303 303 301 300 302 303 306 309 308 309 309 311 312 314 313 314
311 314 314 313 308 307 305 304 304 302 304 305 299 302 300 300 300 298 296 296 300 299 298 298 300 301 300 301 301 304 302 301 302 305 308 311 311 311 311 314 315 317 316 316
311 314 313 311 307 307 304 304 303 304 304 302 301 298 297 301 303 302 301 299 302 303 301 298 298 299 299 301 301 302 303 306 305 306 309 312 315 316 316 315 316 319 319 320
312 314 312 312 310 312 311 306 306 307 306 301 302 302 304 303 303 303 303 303 302 303 303 303 299 298 300 301 303 303 305 308 308 310 311 314 317 320 321 319 320 321 323 324
312 311 310 315 315 314 311 306 307 309 304 300 302 306 307 306 303 303 304 305 305 304 305 305 302 301 299 301 302 304 306 310 311 312 314 317 318 320 323 323 323 324 324 325
313 314 313 314 314 310 309 309 310 307 304 303 306 309 311 308 305 306 307 308 309 309 307 305 304 305 303 303 305 307 311 313 315 314 315 318 321 325 326 326 326 325 326 328
312 313 315 316 315 315 310 306 306 307 303 302 308 309 310 310 309 310 309 309 310 310 310 310 308 310 311 309 309 313 317 319 319 319 320 323 324 327 329 329 329 329 329 330
313 313 314 316 315 313 311 309 308 309 306 304 308 309 310 310 311 311 310 311 311 309 312 314 313 313 314 314 315 319 322 324 321 323 325 329 332 334 332 331 330 330 331 331
312 312 312 316 316 313 310 312 311 308 305 309 311 310 310 313 313 314 314 318 317 318 317 316 316 317 317 316 318 322 326 327 328 327 330 333 334 335 336 335 334 335 335 337
309 310 310 310 308 307 308 311 310 307 306 308 309 311 313 316 317 318 318 320 320 321 321 318 318 319 319 318 324 326 328 332 334 336 337 336 338 338 338 338 339 339 338 340
306 307 307 304 301 303 307 306 305 304 306 308 310 311 311 315 319 320 320 321 324 326 325 323 323 321 317 319 325 326 328 335 339 341 341 340 339 339 339 339 339 339 341 342
304 304 302 297 295 299 301 303 304 304 308 308 309 310 310 312 316 319 322 323 323 323 326 327 326 323 321 323 327 330 334 338 344 344 342 341 341 341 342 341 341 342 344 344
301 299 296 294 292 294 296 299 301 303 305 307 306 307 310 313 312 314 319 322 323 323 328 329 330 329 327 325 331 335 340 345 346 345 342 341 342 343 343 343 344 344 344 345
298 294 292 292 295 295 294 297 299 301 302 302 302 302 306 310 309 313 320 320 320 323 328 332 332 331 328 330 332 339 345 346 344 345 345 345 345 345 344 343 345 345 345 345
295 292 291 291 292 292 292 293 295 297 299 298 298 298 299 305 309 313 318 318 319 324 328 329 326 326 329 331 337 344 347 347 347 348 348 349 348 346 346 345 346 347 346 345
Height
5858 5859 5860 5860 5859 5859 5860 5860 5860 5860 5859 5857 5855 5854 5853 5852 5851 5850 5848 5846 5844 5842 5840 5838 5837 5835 5833 5832 5831 5829 5828 5826 5824 5823 5821 5819 5816 5814 5812 5810 5808 5806 5804 5801
5859 5860 5859 5857 5857 5857 5858 5857 5857 5857 5856 5854 5851 5851 5849 5848 5847 5845 5844 5842 5840 5837 5835 5833 5831 5830 5828 5827 5825 5823 5822 5821 5819 5817 5815 5813 5811 5808 5806 5804 5802 5800 5798 5795
5858 5858 5856 5856 5856 5855 5855 5854 5853 5852 5851 5850 5849 5848 5846 5845 5843 5841 5839 5837 5835 5833 5830 5829 5826 5824 5823 5821 5820 5818 5816 5815 5812 5811 5808 5807 5804 5802 5800 5798 5796 5794 5791 5789
5856 5856 5854 5854 5853 5852 5851 5851 5849 5848 5847 5847 5847 5845 5842 5841 5839 5837 5835 5833 5831 5828 5826 5823 5822 5820 5818 5816 5814 5813 5810 5808 5806 5805 5803 5800 5798 5796 5794 5792 5790 5787 5784 5782
5855 5853 5852 5851 5850 5848 5847 5846 5845 5845 5844 5843 5843 5841 5840 5837 5834 5833 5831 5829 5826 5824 5821 5819 5817 5815 5813 5811 5809 5807 5804 5802 5800 5798 5797 5794 5792 5790 5788 5786 5784 5781 5778 5775
5853 5851 5849 5847 5846 5845 5843 5843 5841 5841 5840 5839 5839 5837 5835 5833 5829 5828 5825 5824 5822 5819 5816 5814 5813 5810 5808 5806 5804 5801 5799 5797 5795 5793 5791 5788 5786 5784 5782 5779 5777 5774 5771 5768
5850 5849 5847 5844 5843 5842 5840 5839 5838 5836 5836 5836 5835 5832 5830 5827 5825 5824 5821 5819 5817 5814 5812 5810 5808 5806 5803 5801 5798 5797 5795 5792 5790 5788 5785 5783 5781 5778 5776 5773 5771 5768 5765 5762
5847 5847 5844 5841 5840 5838 5837 5836 5835 5833 5831 5830 5830 5827 5826 5822 5822 5820 5817 5814 5812 5810 5808 5806 5804 5801 5799 5797 5793 5791 5790 5787 5785 5783 5780 5778 5775 5773 5770 5768 5765 5762 5759 5756
5843 5843 5841 5839 5837 5836 5834 5833 5832 5830 5828 5827 5826 5823 5821 5818 5817 5815 5812 5809 5807 5806 5803 5801 5799 5796 5794 5791 5789 5787 5785 5783 5781 5778 5775 5773 5770 5768 5765 5762 5759 5756 5753 5750
5839 5838 5838 5836 5835 5834 5832 5830 5829 5827 5825 5823 5822 5821 5818 5815 5814 5811 5808 5805 5803 5801 5799 5796 5794 5791 5789 5787 5785 5783 5780 5778 5776 5774 5771 5768 5765 5762 5760 5757 5754 5751 5747 5744
5836 5835 5835 5833 5832 5831 5830 5828 5825 5823 5821 5819 5817 5819 5813 5811 5809 5806 5803 5800 5798 5795 5793 5791 5789 5787 5783 5781 5779 5778 5776 5774 5771 5769 5766 5763 5760 5757 5755 5752 5749 5745 5742 5739
5833 5832 5831 5830 5829 5827 5825 5824 5822 5820 5817 5815 5813 5814 5809 5806 5803 5801 5798 5795 5792 5790 5788 5786 5783 5781 5779 5776 5774 5772 5770 5768 5766 5763 5761 5758 5755 5752 5750 5747 5744 5741 5738 5735
5829 5828 5828 5828 5828 5825 5823 5820 5818 5816 5814 5811 5809 5809 5804 5801 5798 5796 5794 5790 5787 5784 5782 5780 5778 5776 5774 5772 5770 5768 5766 5764 5762 5759 5756 5753 5750 5748 5745 5742 5739 5736 5733 5730
5827 5826 5825 5824 5822 5820 5819 5817 5815 5812 5810 5807 5805 5803 5799 5795 5793 5791 5788 5785 5782 5779 5776 5774 5773 5771 5770 5768 5765 5764 5762 5760 5757 5755 5752 5749 5746 5743 5741 5738 5735 5732 5729 5725
5824 5823 5821 5820 5818 5816 5815 5813 5811 5808 5806 5803 5801 5797 5794 5791 5788 5786 5783 5780 5777 5774 5771 5769 5768 5766 5764 5763 5760 5759 5758 5755 5753 5750 5748 5745 5742 5740 5737 5734 5731 5728 5725 5722
5821 5820 5818 5817 5815 5812 5811 5809 5807 5804 5802 5799 5796 5793 5789 5786 5784 5781 5778 5775 5772 5769 5766 5764 5762 5761 5759 5758 5757 5755 5753 5751 5748 5746 5744 5741 5739 5736 5734 5731 5728 5725 5722 5718
5818 5816 5814 5813 5811 5809 5807 5805 5802 5800 5797 5794 5791 5789 5785 5782 5779 5776 5773 5770 5767 5765 5762 5760 5758 5756 5755 5754 5752 5750 5749 5747 5745 5743 5740 5738 5736 5733 5731 5728 5725 5722 5718 5714
5815 5813 5811 5809 5807 5806 5805 5800 5798 5796 5793 5790 5787 5784 5781 5778 5775 5771 5768 5765 5762 5760 5758 5756 5754 5753 5752 5750 5749 5747 5745 5744 5742 5740 5737 5736 5733 5731 5728 5725 5722 5719 5716 5712
5811 5809 5807 5805 5803 5801 5799 5795 5793 5791 5788 5785 5782 5779 5776 5773 5771 5767 5764 5761 5758 5756 5754 5752 5751 5750 5749 5747 5746 5745 5743 5742 5739 5737 5735 5733 5731 5728 5726 5723 5720 5717 5713 5709
5807 5805 5803 5800 5798 5796 5794 5791 5789 5788 5784 5781 5778 5775 5772 5769 5767 5765 5762 5759 5756 5754 5751 5750 5749 5748 5747 5745 5744 5743 5742 5740 5738 5736 5734 5731 5729 5727 5724 5721 5717 5714 5711 5707
5804 5802 5800 5797 5794 5791 5789 5787 5786 5784 5781 5777 5774 5771 5769 5766 5764 5762 5759 5756 5754 5752 5750 5748 5747 5746 5745 5744 5743 5742 5740 5739 5737 5735 5732 5730 5728 5725 5722 5719 5716 5712 5708 5705
5799 5798 5796 5793 5790 5789 5785 5783 5781 5779 5775 5773 5770 5768 5765 5763 5761 5758 5756 5754 5752 5750 5748 5747 5746 5745 5744 5743 5742 5741 5739 5738 5735 5733 5731 5729 5726 5723 5720 5717 5714 5710 5706 5703
5794 5793 5790 5788 5788 5784 5780 5778 5776 5773 5771 5769 5767 5765 5763 5760 5758 5757 5755 5753 5751 5748 5747 5746 5745 5744 5743 5742 5741 5739 5738 5736 5734 5732 5730 5727 5725 5722 5718 5715 5712 5708 5705 5701
5789 5786 5784 5782 5781 5779 5776 5774 5771 5769 5767 5766 5764 5762 5760 5758 5756 5754 5752 5751 5749 5747 5746 5745 5744 5743 5742 5741 5740 5738 5737 5735 5733 5731 5729 5726 5723 5720 5717 5713 5710 5707 5703 5699
5784 5781 5778 5777 5775 5773 5771 5769 5767 5765 5764 5762 5760 5759 5757 5755 5754 5752 5750 5749 5747 5746 5745 5744 5743 5742 5741 5740 5739 5737 5736 5734 5732 5730 5727 5724 5722 5719 5715 5712 5708 5705 5701 5697
5777 5775 5773 5771 5770 5768 5766 5764 5762 5761 5760 5758 5757 5756 5755 5753 5751 5750 5749 5747 5746 5745 5744 5743 5742 5741 5741 5740 5738 5736 5735 5733 5731 5729 5726 5723 5720 5717 5714 5710 5707 5703 5699 5695